Location: Ferchesar
(52.6477°N, 12.4298°E)
Time: 04:08:50
(UTC+02:00)

Vanguard 3 - Pass Details

Date: 02 March 2021
Orbit: 508 x 3262 km, 33.3° (Epoch: 15 April)

Event Time Altitude Azimuth Distance (km) Brightness Sun altitude
Rises 17:13:05 0° 242° (WSW) 7,091 14.2 4.8°
Reaches altitude 10° 17:18:54 10° 234° (SW) 5,834 13.2 3.9°
Maximum altitude 17:32:31 31° 182° (S) 3,425 10.6 1.9°
Drops below altitude 10° 17:41:44 10° 125° (SE) 3,916 10.3 0.6°
Sets 17:44:46 0° 115° (ESE) 4,548 10.5 0.1°
